Starlink 3885

operational
NORAD ID: 52463 Int'l Des: 2022-049 Owner: SPXS Country: US Constellation: starlink
LEOCIRCULAR

About Starlink 3885

Description loading...

Live Position

Loading 3D Globe...

Upcoming Passes

Altitude History

Altitude vs Time

uPlot chart will show altitude changes over time

Two-Line Element Set

1 52463U 22049N 25304.63394780 .00000224 00000-0 32170-4 0 9996
2 52463 53.2172 268.4781 0001320 92.4038 267.7106 15.08841841192900
Epoch: Oct 31, 2025 • Age: 13 hours

Current Status

Altitude 540.0 km
Velocity 7.60 km/s
Sub-Earth Point 21.39°N, 178.47°W
Launch Date May 6, 2022
Age 3.4 years
Type internet

Technical Details

Classification Payload
Mass 297.00 kg
Dry Mass 220.00 kg
Total Mass 297.00 kg
Length 0.20 m
Diameter 2.80 m
Span 9.00 m
Shape Box + pan
Manufacturer SPXS
Bus Type Starlink
Phase Status In Orbit
Owner/State SPXS/US

Large Constellations

Loading constellations...